This is the latest recevied weather packets stored in our database for station/object W0RMT-13. If no packets are shown the sender has not sent any weather packets the latest 10 day(s).
| Time | Temp. | Humidity | Pressure | Rain* | Wind** | Luminosity | Snow |
|---|---|---|---|---|---|---|---|
| 1777657182 | 14.44° C | 32% | 1019.8 hPa | 0 mm | - | 615 W/m² | - |
| 1777656558 | 14.44° C | 31% | 1019.8 hPa | 0 mm | - | 594 W/m² | - |
| 1777655846 | 13.89° C | 31% | 1019.8 hPa | 0 mm | - | 585 W/m² | - |
| 1777655251 | 13.33° C | 31% | 1019.8 hPa | 0 mm | - | 568 W/m² | - |
| 1777654558 | 13.89° C | 32% | 1020.2 hPa | 0 mm | - | 556 W/m² | - |
| 1777653910 | 13.89° C | 33% | 1020.2 hPa | 0 mm | - | 545 W/m² | - |
| 1777653277 | 13.33° C | 32% | 1020.2 hPa | 0 mm | - | 527 W/m² | - |
| 1777652613 | 13.33° C | 32% | 1020.2 hPa | 0 mm | - | 502 W/m² | - |
| 1777651917 | 12.78° C | 33% | 1020.2 hPa | 0 mm | - | 461 W/m² | - |
| 1777651308 | 12.78° C | 31% | 1019.8 hPa | 0 mm | - | 443 W/m² | - |
| 1777650634 | 12.22° C | 36% | 1020.2 hPa | 0 mm | - | 418 W/m² | - |
| 1777649927 | 12.22° C | 40% | 1020.2 hPa | 0 mm | - | 386 W/m² | - |
| 1777649229 | 12.22° C | 41% | 1019.8 hPa | 0 mm | - | 365 W/m² | - |
| 1777648619 | 11.67° C | 41% | 1020.2 hPa | 0 mm | - | 342 W/m² | - |
| 1777647940 | 11.67° C | 42% | 1020.2 hPa | 0 mm | - | 318 W/m² | - |
| 1777647248 | 10.56° C | 41% | 1020.2 hPa | 0 mm | - | 295 W/m² | - |
| 1777646549 | 9.44° C | 44% | 1020.2 hPa | 0 mm | - | 267 W/m² | - |
| 1777645904 | 8.89° C | 47% | 1020.2 hPa | 0 mm | - | 228 W/m² | - |
| 1777645275 | 8.33° C | 48% | 1020.5 hPa | 0 mm | - | 229 W/m² | - |
| 1777644578 | 7.22° C | 49% | 1020.2 hPa | 0 mm | - | 210 W/m² | - |
| 1777643969 | 6.11° C | 52% | 1019.8 hPa | 0 mm | - | 194 W/m² | - |
| 1777643354 | 5° C | 56% | 1019.8 hPa | 0 mm | - | 178 W/m² | - |
| 1777642679 | 4.44° C | 61% | 1019.8 hPa | 0 mm | - | 165 W/m² | - |
| 1777642035 | 3.33° C | 67% | 1019.8 hPa | 0 mm | - | 36 W/m² | - |
| 1777641348 | 2.22° C | 72% | 1019.8 hPa | 0 mm | - | 37 W/m² | - |
* Rain latest hour (hover to see other rain measurements)
** Current wind speed in m/s (hover to see current wind gust speed)